Location: Newark
(50.2919°N, 19.2528°E)
Time: 14:51:10
(UTC+00:00)

N. Korean satellite - Visible Passes

Search period start: 27 September 2020 00:00
Search period end: 07 October 2020 00:00
Orbit: 455 x 503 km, 97.2° (Epoch: 26 September)

Date Brightness Start Highest point End Pass type
(mag) Time Alt. Az. Time Alt. Az. Time Alt. Az.
28 Sep 8.1 04:00:45 10° NNE 04:04:14 42° E 04:07:39 10° S visible
29 Sep 9.5 03:35:09 10° NE 03:38:03 22° E 03:40:54 10° SE visible
30 Sep 10.1 03:10:20 10° ENE 03:11:45 12° E 03:13:11 10° ESE visible
02 Oct 8.7 03:50:06 10° NNE 03:53:23 32° E 03:56:34 10° SSE visible
03 Oct 9.8 03:24:42 10° NE 03:27:08 17° E 03:29:31 10° SE visible
04 Oct 10.8 16:46:41 10° WSW 16:47:44 11° W 16:48:48 10° WNW visible
05 Oct 7.8 04:05:08 10° NNE 04:08:37 47° E 04:12:01 10° S visible
06 Oct 9.2 03:39:27 10° NE 03:42:26 24° E 03:45:20 10° SSE visible
